Tucson, AZ

7:09 AM MST on August 22, 2017 (GMT -0700)
Tucson International

Weather History for KTUS - June, 2013

Change the Weather History Date:

Friday, June 21, 2013

  Actual Average Record
Temperature  
Mean Temperature 88 °F 86 °F  
Max Temperature 105 °F 102 °F 115 °F (2017)
Min Temperature 71 °F 71 °F 50 °F (1923)
Degree Days  
Heating Degree Days 0 0  
Month to date heating degree days 0 0  
Since 1 June heating degree days 0 0  
Since 1 July heating degree days 1363 1511  
Cooling Degree Days 23 21  
Month to date cooling degree days 509 394  
Year to date cooling degree days 1220 896  
Since 1 June cooling degree days 509 394  
Growing Degree Days 38 (Base 50)    
Moisture  
Dew Point 23 °F    
Average Humidity 13    
Maximum Humidity 23    
Minimum Humidity 2    
Precipitation  
Precipitation 0.00 in 0.01 in 0.71 in (1950)
Month to date precipitation 0.00 0.09  
Year to date precipitation 1.74 3.16  
Snow  
Snow 0.00 in - - ()
Month to date snowfall 0.0  
Snow Depth 0.00 in    
Sea Level Pressure  
Sea Level Pressure 29.74 in    
Wind  
Wind Speed 10 mph (SSW)    
Max Wind Speed 23 mph    
Max Gust Speed 30 mph    
Visibility 10 miles    
Events      
T = Trace of Precipitation, MM = Missing Value Source: NWS Daily Summary

Daily Weather History Graph

Daily Weather History Graph

Search for Another Location

Airport or City:

Trip Planner

Search our weather history database for the weather conditions in past years. The results will help you decide how hot, cold, wet, or windy it might be!

Date:

Astronomy

Jun. 21, 2013 Rise Set
Actual Time 5:17 AM MST 7:33 PM MST
Civil Twilight 4:49 AM MST 8:01 PM MST
Nautical Twilight 4:14 AM MST 8:36 PM MST
Astronomical Twilight 3:37 AM MST 9:13 PM MST
Moon 5:51 PM MST (6/21) 3:31 AM MST (6/21)
Length of Visible Light 15h 12m
Length of Day
14h 15m
Waxing Gibbous, 96% of the Moon is Illuminated
Jun 21
Waxing Gibbous
Jun 23
Full
Jun 29
Last Quarter
Jul 8
New
Jul 15
First Quarter

Hourly Weather History & Observations

Time (MST) Temp. Dew Point Humidity Pressure Visibility Wind Dir Wind Speed Gust Speed Precip Events Conditions
12:53 AM 82.9 °F 36.0 °F 19% 29.74 in 10.0 mi East 3.5 mph - N/A   Clear
1:53 AM 81.0 °F 33.1 °F 18% 29.74 in 10.0 mi SSE 6.9 mph - N/A   Clear
2:53 AM 78.1 °F 35.1 °F 21% 29.75 in 10.0 mi SSE 8.1 mph - N/A   Clear
3:53 AM 75.9 °F 35.1 °F 23% 29.75 in 10.0 mi SSE 9.2 mph - N/A   Clear
4:53 AM 73.0 °F 33.1 °F 23% 29.77 in 10.0 mi SSE 8.1 mph - N/A   Clear
5:53 AM 73.9 °F 34.0 °F 23% 29.78 in 10.0 mi SE 9.2 mph - N/A   Clear
6:53 AM 80.1 °F 35.1 °F 20% 29.79 in 10.0 mi SSE 8.1 mph - N/A   Clear
7:53 AM 84.9 °F 35.1 °F 17% 29.80 in 10.0 mi SSE 10.4 mph - N/A   Clear
8:53 AM 90.0 °F 35.1 °F 14% 29.80 in 10.0 mi SSE 8.1 mph - N/A   Clear
9:53 AM 93.0 °F 25.0 °F 9% 29.79 in 10.0 mi SSW 8.1 mph 20.7 mph N/A   Clear
10:53 AM 97.0 °F 19.9 °F 6% 29.78 in 10.0 mi SSW 16.1 mph 20.7 mph N/A   Clear
11:53 AM 99.0 °F 21.0 °F 6% 29.76 in 10.0 mi SSE 9.2 mph 18.4 mph N/A   Clear
12:53 PM 100.9 °F 14.0 °F 4% 29.74 in 10.0 mi West 10.4 mph 21.9 mph N/A   Clear
1:53 PM 102.9 °F 3.9 °F 4% 29.73 in 10.0 mi West 17.3 mph 26.5 mph N/A   Clear
2:53 PM 104.0 °F 3.9 °F 4% 29.71 in 10.0 mi SW 15.0 mph 27.6 mph N/A   Clear
3:53 PM 102.9 °F 6.1 °F 4% 29.70 in 10.0 mi WSW 20.7 mph 26.5 mph N/A   Clear
4:53 PM 102.0 °F 9.0 °F 4% 29.69 in 10.0 mi WSW 12.7 mph - N/A   Clear
5:53 PM 100.9 °F 3.9 °F 4% 29.68 in 10.0 mi SW 17.3 mph 24.2 mph N/A   Clear
6:53 PM 99.0 °F 6.1 °F 4% 29.67 in 10.0 mi WSW 12.7 mph - N/A   Clear
7:53 PM 95.0 °F 16.0 °F 6% 29.69 in 10.0 mi WSW 5.8 mph - N/A   Clear
8:53 PM 91.9 °F 25.0 °F 9% 29.71 in 10.0 mi WNW 4.6 mph - N/A   Clear
9:53 PM 89.1 °F 28.9 °F 12% 29.72 in 10.0 mi Variable 4.6 mph - N/A   Clear
10:53 PM 86.0 °F 30.9 °F 14% 29.73 in 10.0 mi SW 5.8 mph - N/A   Clear
11:53 PM 82.9 °F 28.0 °F 14% 29.74 in 10.0 mi SE 6.9 mph - N/A   Clear